Regional Weather Roundup
Issued by NWS Albany, NY

Home | Current Version | Previous Version | Text Only | Print | Product List | Glossary On
Versions: 1 2 3 4 5 6 7 8 9 10 11 12 13 14 15 16 17 18 19 20 21 22 23 24 25 26 27 28 29 30 31 32 33 34 35 36 37 38 39 40 41 42 43 44 45 46 47 48 49 50
000
ASUS41 KALY 210210
RWRALY

NEW YORK STATE HOURLY WEATHER ROUNDUP
NATIONAL WEATHER SERVICE ALBANY NY
900 PM EST SAT DEC 20 2014

NOTE: "FAIR" INDICATES FEW OR NO CLOUDS BELOW 12,000 FEET WITH NO
SIGNIFICANT WEATHER AND/OR NO OBSTRUCTIONS TO VISIBILITY.

NYZ032-033-038>043-046>054-057>066-NYZ062>081-210300-
EAST


CITY           SKY/WX    TMP DP  RH WIND       PRES   REMARKS
ALBANY         CLOUDY    28  19  69 N5        30.31S WCI  23
GLENS FALLS    CLEAR     19  16  88 CALM      30.32S
POUGHKEEPSIE   CLOUDY    30  20  66 N6        30.30R WCI  24
MONTGOMERY     CLOUDY    29  22  75 N3        30.28R
WHITE PLAINS   CLOUDY    30  21  69 N6        30.26S WCI  24
ISLIP          CLOUDY    33  23  66 CALM      30.27R
NEW YORK CITY  CLOUDY    33  22  63 N7        30.29R WCI  27
CENTRAL PARK   CLOUDY    32  20  61 VRB5      30.31R WCI  27
$$

NYZ005>009-017-018-044>046-055-056-210300-
CENTRAL


CITY           SKY/WX    TMP DP  RH WIND       PRES   REMARKS
FULTON         CLOUDY    23  19  85 CALM      30.29F
SYRACUSE       MOCLDY    22  20  92 CALM      30.29F
ROME           CLOUDY    25  19  78 E3        30.32S
ELMIRA         CLOUDY    29  22  75 NE3       30.25F
BINGHAMTON     CLOUDY    25  20  81 CALM      30.21S
MONTICELLO     CLOUDY    25  19  80 NW6       30.23S WCI  18
$$

NYZ026>034-041>043-210300-
NORTH


CITY           SKY/WX    TMP DP  RH WIND       PRES   REMARKS
WATERTOWN      CLEAR     19  12  74 NE3       30.30F
FORT DRUM      NOT AVBL
MASSENA        PTCLDY    10   6  84 CALM      30.34S
SARANAC LAKE   CLEAR     10  32 100 CALM      30.19S
PLATTSBURGH    CLOUDY    15  12  88 CALM      30.34R
$$

NYZ001>004-010>016-019>021-210300-
WEST


CITY           SKY/WX    TMP DP  RH WIND       PRES   REMARKS
NIAGARA FALLS  CLOUDY    26  21  81 CALM      30.27S
BUFFALO        MOCLDY    29  22  75 CALM      30.27S
DUNKIRK        CLOUDY    30  23  75 S6        30.27F WCI  24
JAMESTOWN      CLOUDY    25  19  80 S3        30.21S
WELLSVILLE     CLOUDY    24  19  81 NW6       30.20R WCI  17
ROCHESTER      CLOUDY    30  22  72 CALM      30.28S
PENN YAN       CLOUDY    28  22  78 CALM      30.26S
$$

             KEY
       WCI = WIND CHILL INDEX
       VSB = VISIBILITY
       HX  = HEAT INDEX
$$



USA.gov is the U.S. government's official web portal to all federal, state and local government web resources and services.